| time (UTC) | temp C | wind direction | speed KPH | gust KPH | rain 1hr cm | rain 24hr cm | rain mn cm | humidity % | barometer mb |
| 20260506214504 | 6 | 170 | 32.2 | 37.0 | 0.00 | 0.00 | 0.00 | 77 | 1011.7 |
| 20260506213004 | 6 | 161 | 27.4 | 37.0 | 0.00 | 0.00 | 0.00 | 77 | 1011.7 |
| 20260506211504 | 6 | 144 | 20.9 | 29.0 | 0.00 | 0.00 | 0.00 | 78 | 1011.9 |
| 20260506210004 | 6 | 141 | 19.3 | 24.1 | 0.00 | 0.00 | 0.00 | 79 | 1012.0 |
| 20260506204504 | 6 | 148 | 19.3 | 25.7 | 0.00 | 0.03 | 0.00 | 78 | 1012.1 |
| 20260506203004 | 6 | 147 | 20.9 | 29.0 | 0.00 | 0.03 | 0.00 | 78 | 1012.1 |
| 20260506201525 | 6 | 142 | 22.5 | 29.0 | 0.00 | 0.03 | 0.00 | 79 | 1012.0 |
| 20260506200004 | 6 | 136 | 17.7 | 25.7 | 0.00 | 0.03 | 0.00 | 79 | 1012.2 |
| 20260506194504 | 6 | 131 | 16.1 | 20.9 | 0.00 | 0.03 | 0.00 | 79 | 1012.2 |
| 20260506193004 | 6 | 129 | 19.3 | 22.5 | 0.00 | 0.03 | 0.00 | 78 | 1012.2 |
| 20260506191504 | 6 | 131 | 17.7 | 24.1 | 0.00 | 0.03 | 0.00 | 77 | 1012.1 |
| 20260506190004 | 6 | 132 | 19.3 | 24.1 | 0.00 | 0.03 | 0.00 | 76 | 1012.1 |
| 20260506184504 | 7 | 139 | 20.9 | 30.6 | 0.00 | 0.03 | 0.00 | 74 | 1012.1 |
| 20260506183004 | 7 | 147 | 22.5 | 29.0 | 0.00 | 0.03 | 0.00 | 74 | 1012.2 |
| 20260506181503 | 7 | 149 | 20.9 | 32.2 | 0.00 | 0.03 | 0.00 | 74 | 1012.1 |
| 20260506180005 | 8 | 156 | 24.1 | 32.2 | 0.00 | 0.03 | 0.00 | 71 | 1012.1 |
| 20260506174503 | 8 | 156 | 25.7 | 35.4 | 0.00 | 0.03 | 0.00 | 70 | 1012.0 |
| 20260506173004 | 8 | 154 | 27.4 | 37.0 | 0.00 | 0.03 | 0.00 | 70 | 1012.0 |
| 20260506171504 | 8 | 150 | 29.0 | 40.2 | 0.00 | 0.03 | 0.00 | 69 | 1012.1 |
| 20260506170025 | 8 | 148 | 22.5 | 32.2 | 0.00 | 0.03 | 0.00 | 70 | 1012.2 |
| 20260506164503 | 10 | 144 | 24.1 | 33.8 | 0.00 | 0.03 | 0.00 | 68 | 1012.1 |
| 20260506163004 | 9 | 141 | 22.5 | 32.2 | 0.00 | 0.03 | 0.00 | 70 | 1012.3 |
| 20260506161524 | 8 | 137 | 27.4 | 40.2 | 0.00 | 0.03 | 0.00 | 71 | 1012.4 |
| 20260506160004 | 9 | 141 | 24.1 | 30.6 | 0.00 | 0.03 | 0.00 | 70 | 1012.5 |
| 20260506154504 | 9 | 151 | 19.3 | 29.0 | 0.00 | 0.03 | 0.00 | 69 | 1012.6 |
| 20260506153004 | 10 | 107 | 12.9 | 24.1 | 0.00 | 0.03 | 0.00 | 68 | 1012.7 |
| 20260506151504 | 11 | 49 | 9.7 | 24.1 | 0.00 | 0.03 | 0.00 | 61 | 1012.8 |
| 20260506150004 | 12 | 32 | 12.9 | 22.5 | 0.00 | 0.03 | 0.00 | 68 | 1012.9 |
| 20260506144503 | 11 | 36 | 12.9 | 25.7 | 0.00 | 0.03 | 0.00 | 65 | 1012.9 |
| 20260506143004 | 11 | 38 | 17.7 | 24.1 | 0.00 | 0.03 | 0.00 | 65 | 1013.2 |
| 20260506141503 | 12 | 31 | 12.9 | 22.5 | 0.00 | 0.03 | 0.00 | 63 | 1013.2 |
| 20260506140024 | 12 | 26 | 17.7 | 24.1 | 0.00 | 0.03 | 0.00 | 66 | 1013.3 |
| 20260506134504 | 11 | 30 | 17.7 | 24.1 | 0.00 | 0.03 | 0.00 | 72 | 1013.5 |
| 20260506133024 | 10 | 29 | 19.3 | 25.7 | 0.00 | 0.03 | 0.00 | 78 | 1013.6 |
| 20260506131503 | 10 | 30 | 16.1 | 24.1 | 0.00 | 0.03 | 0.00 | 72 | 1013.7 |
| 20260506130004 | 9 | 37 | 16.1 | 20.9 | 0.00 | 0.03 | 0.00 | 71 | 1013.8 |
| 20260506124503 | 9 | 23 | 17.7 | 25.7 | 0.00 | 0.03 | 0.00 | 71 | 1013.8 |
| 20260506123003 | 9 | 15 | 17.7 | 22.5 | 0.00 | 0.03 | 0.00 | 67 | 1013.8 |
| 20260506121503 | 10 | 23 | 12.9 | 19.3 | 0.00 | 0.03 | 0.00 | 70 | 1013.9 |
| 20260506120003 | 10 | 20 | 17.7 | 22.5 | 0.00 | 0.03 | 0.00 | 74 | 1013.9 |
| 20260506114524 | 8 | 13 | 12.9 | 19.3 | 0.00 | 0.03 | 0.00 | 71 | 1014.0 |
| 20260506113024 | 8 | 22 | 8.0 | 16.1 | 0.00 | 0.03 | 0.00 | 69 | 1014.1 |
| 20260506111503 | 8 | 36 | 4.8 | 8.0 | 0.00 | 0.03 | 0.00 | 65 | 1014.1 |
| 20260506110004 | 8 | 41 | 6.4 | 12.9 | 0.00 | 0.03 | 0.00 | 68 | 1014.2 |
| 20260506104503 | 8 | 27 | 6.4 | 12.9 | 0.00 | 0.03 | 0.00 | 68 | 1014.2 |
| 20260506103003 | 7 | 6 | 4.8 | 8.0 | 0.00 | 0.03 | 0.00 | 71 | 1014.3 |
| 20260506101503 | 7 | 325 | 3.2 | 8.0 | 0.00 | 0.03 | 0.00 | 69 | 1014.4 |
| 20260506100004 | 7 | 259 | 6.4 | 14.5 | 0.00 | 0.03 | 0.00 | 63 | 1014.4 |
| 20260506094503 | 7 | 235 | 4.8 | 14.5 | 0.00 | 0.03 | 0.00 | 67 | 1014.7 |
| 20260506093004 | 7 | 255 | 4.8 | 14.5 | 0.00 | 0.03 | 0.00 | 63 | 1014.8 |
| 20260506091503 | 9 | 253 | 4.8 | 12.9 | 0.00 | 0.03 | 0.00 | 62 | 1014.9 |
| 20260506090024 | 8 | 225 | 4.8 | 8.0 | 0.00 | 0.05 | 0.00 | 65 | 1014.9 |
| 20260506084503 | 7 | 180 | 4.8 | 12.9 | 0.00 | 0.05 | 0.00 | 66 | 1015.0 |
| 20260506083003 | 8 | 170 | 6.4 | 14.5 | 0.00 | 0.05 | 0.00 | 68 | 1015.1 |
| 20260506081503 | 7 | 176 | 3.2 | 8.0 | 0.00 | 0.05 | 0.00 | 68 | 1015.0 |
| 20260506073024 | 6 | 202 | 6.4 | 14.5 | 0.00 | 0.05 | 0.00 | 74 | 1015.1 |
| 20260506071503 | 5 | 201 | 4.8 | 11.3 | 0.00 | 0.05 | 0.00 | 82 | 1015.1 |
| 20260506061503 | 5 | 233 | 1.6 | 11.3 | 0.00 | 0.05 | 0.00 | 86 | 1015.1 |
| 20260506044524 | 0 | 219 | 11.3 | 12.9 | 0.00 | 0.08 | 0.00 | 93 | 1015.5 |
| 20260506043024 | 0 | 222 | 9.7 | 11.3 | 0.00 | 0.08 | 0.00 | 93 | 1015.5 |
| 20260506041503 | 0 | 222 | 4.8 | 6.4 | 0.00 | 0.08 | 0.00 | 93 | 1015.5 |
| 20260506040003 | 0 | 219 | 3.2 | 11.3 | 0.00 | 0.08 | 0.00 | 93 | 1015.6 |
| 20260506034503 | 0 | 219 | 8.0 | 11.3 | 0.00 | 0.08 | 0.00 | 92 | 1015.7 |
| 20260506033024 | 1 | 216 | 11.3 | 12.9 | 0.00 | 0.08 | 0.00 | 93 | 1015.7 |
| 20260506031503 | 1 | 214 | 12.9 | 14.5 | 0.00 | 0.08 | 0.00 | 94 | 1015.7 |
| 20260506030003 | 0 | 215 | 11.3 | 14.5 | 0.00 | 0.08 | 0.00 | 95 | 1015.7 |
| 20260506024503 | 0 | 210 | 6.4 | 12.9 | 0.00 | 0.08 | 0.00 | 94 | 1015.7 |
| 20260506023003 | 0 | 200 | 4.8 | 12.9 | 0.00 | 0.08 | 0.00 | 94 | 1015.9 |
| 20260506021503 | 0 | 193 | 12.9 | 14.5 | 0.00 | 0.08 | 0.00 | 94 | 1015.9 |
| 20260506020005 | 0 | 194 | 8.0 | 11.3 | 0.00 | 0.08 | 0.00 | 94 | 1015.9 |
| 20260506014504 | 0 | 194 | 4.8 | 8.0 | 0.00 | 0.08 | 0.00 | 94 | 1016.1 |
| 20260506013004 | 0 | 165 | 6.4 | 8.0 | 0.00 | 0.08 | 0.00 | 94 | 1016.0 |
| 20260506011525 | 0 | 156 | 6.4 | 11.3 | 0.00 | 0.08 | 0.00 | 94 | 1016.2 |
| 20260506010005 | 0 | 160 | 8.0 | 12.9 | 0.00 | 0.08 | 0.00 | 94 | 1016.2 |
| 20260506004505 | 1 | 163 | 11.3 | 14.5 | 0.00 | 0.08 | 0.00 | 94 | 1016.2 |
| 20260506003025 | 0 | 153 | 12.9 | 14.5 | 0.00 | 0.08 | 0.00 | 94 | 1016.1 |
| 20260506001525 | 0 | 140 | 9.7 | 12.9 | 0.00 | 0.08 | 0.00 | 94 | 1016.4 |
| 20260506000004 | 0 | 145 | 3.2 | 11.3 | 0.00 | 0.08 | 0.00 | 93 | 1016.3 |
| 20260505234504 | 1 | 0 | 0.0 | 0.0 | 0.00 | 0.08 | 0.00 | 91 | 1016.4 |
| 20260505233004 | 1 | 240 | 1.6 | 4.8 | 0.00 | 0.08 | 0.00 | 92 | 1016.4 |
| 20260505231504 | 1 | 240 | 1.6 | 3.2 | 0.00 | 0.10 | 0.00 | 92 | 1016.5 |
| 20260505230005 | 2 | 0 | 0.0 | 0.0 | 0.00 | 0.13 | 0.00 | 92 | 1016.5 |
| 20260505224504 | 2 | 292 | 0.0 | 3.2 | 0.00 | 0.13 | 0.13 | 92 | 1016.8 |
| 20260505223004 | 3 | 263 | 3.2 | 12.9 | 0.00 | 0.15 | 0.13 | 93 | 1016.8 |
| 20260505221525 | 2 | 239 | 1.6 | 4.8 | 0.00 | 0.15 | 0.13 | 93 | 1016.8 |
| 20260505220004 | 2 | 239 | 1.6 | 4.8 | 0.00 | 0.15 | 0.13 | 91 | 1016.8 |